sat.trackr.live / text

‹ back to catalog

STARLINK-11186 [DTC]

NORAD 60070 · 2024-113M

PAYLOAD ACTIVE UNKNOWN

§ Identity

Operator
Country
US
Launch date
2024-06-19
Launch site
AFWTR
Launch vehicle
Mass (kg)
RCS (m²)

Purposes: comms

External: N2YO · Heavens-Above · Gunter

§ Orbital elements

Epoch: 2026-09-21T09:10:26.862240Z

Period
91.74 min
Inclination
53.1590°
Eccentricity
0.0001037
Mean motion
15.69702229 rev/d
Perigee alt
359.1 km
Apogee alt
360.4 km
Semi-major
6,737.9 km
B*
-2.4826e-7
RAAN
306.7576°
Arg perigee
99.5149°
Mean anomaly
260.5986°
Rev number
13,070

§ Raw data

STARLINK-11186 [DTC]1 60070U 24113M   26264.38225535 -.00000618  00000+0 -24826-6 0  99912 60070  53.1590 306.7576 0001037  99.5149 260.5986 15.69702229130700

JSON: /api/v1/satellites/60070 · /tle

For live sub-satellite position, see the globe view (requires WebGL).

§ Visibility from observer

Set your observer location to see the next 7 days of passes ≥ 10°. The values pass through the URL so the page stays shareable.

No JS? Fill the form by hand. The geolocation button needs JavaScript.